Regional Weather Roundup
Issued by NWS

Home | Current Version | Previous Version | Graphics & Text | Print | Product List | Glossary On
Versions: 1 2 3 4 5 6 7 8 9 10 11 12 13 14 15 16 17 18 19 20 21 22 23 24 25 26 27 28 29 30 31 32 33 34 35 36 37 38 39 40 41 42 43 44 45 46 47 48 49 50
000
ASUS43 KBIS 221720
RWRND

NORTH DAKOTA REGIONAL WEATHER ROUNDUP
NATIONAL WEATHER SERVICE BISMARCK ND
1100 AM CST SAT NOV 22 2014

NOTE: "FAIR" INDICATES FEW OR NO CLOUDS BELOW 12,000 FEET WITH NO
SIGNIFICANT WEATHER AND/OR OBSTRUCTIONS TO VISIBILITY.


NDZ001>003-009>011-017-221800-
NORTHWEST NORTH DAKOTA

CITY           SKY/WX    TMP DP  RH WIND       PRES   REMARKS
WILLISTON      CLOUDY    37  29  72 S6        29.34F
MINOT          CLOUDY    34  28  79 SE3       29.42F
MINOT AFB      CLOUDY    34  33  99 E5        29.42F
$$

NDZ018>021-031>035-040>046-221800-
SOUTHWEST NORTH DAKOTA

CITY           SKY/WX    TMP DP  RH WIND       PRES   REMARKS
BISMARCK       CLOUDY    37  31  78 SE5       29.49F
DICKINSON      CLOUDY    39  27  62 S7        29.37F
GARRISON         N/A     35  30  82 SE7       29.42F
HETTINGER ARPT CLOUDY    36  26  67 S5        29.42F
$$

NDZ004>008-012>016-024-026-027-054-221800-
NORTHEAST NORTH DAKOTA

CITY           SKY/WX    TMP DP  RH WIND       PRES   REMARKS
GRAND FORKS    MOSUNNY   34  27  75 S3        29.56F
GRND FRKS AFB  SUNNY     36  29  76 VRB1      29.56F HAZE
DEVILS LAKE    CLOUDY    32  21  64 SE6       29.50S
$$

NDZ022-023-025-028>030-036>039-047>053-221800-
SOUTHEAST NORTH DAKOTA

CITY           SKY/WX    TMP DP  RH WIND       PRES   REMARKS
FARGO          SUNNY     37  28  70 S7        29.60S
JAMESTOWN      MOSUNNY   38  27  64 S9        29.52F
$$




USA.gov is the U.S. government's official web portal to all federal, state and local government web resources and services.